{"data":{"norad_id":61535,"epoch":"2026-05-25T04:25:52.730112Z","epoch_age_seconds":55124,"freshness":"FRESH","line1":"1 61535U 24184D   26145.18463808  .00002271  00000+0  23599-4 0  9998","line2":"2 61535  53.1617 219.0291 0001038  83.3293 276.7843 15.69711957 92435","mean_motion":15.69711957,"eccentricity":0.0001038,"inclination_deg":53.1617,"raan_deg":219.0291,"arg_perigee_deg":83.3293,"mean_anomaly_deg":276.7843,"bstar":2.3599e-5,"rev_number":9243,"period_min":91.736575846189,"perigee_km":359.0217605647,"apogee_km":360.42053991669,"semimajor_km":6737.8581502407,"source":"CELESTRAK","updated_at":"2026-05-25T13:38:19.397650Z"}}